Date String (YYYY-MM-DD hh:mm:ss) UTC,Instrument flags,Ambient pressure (hPa),Sample flow (lpm),Bypass flow (lpm),Sample temperature (°C),Ambient temperature (°C),ASC tube jacket temperature (°C),LED temperature (°C),Box temperature (°C),Sample RH (%),Span deviation,Mass concentration (μg/m³),Mass concentration (μg/m³),Mass concentration (μg/m³)
DateTimeUTC,F1_M11,P_M11,Q1_M11,Q2_M11,T1_M11,T2_M11,T3_M11,T4_M11,T5_M11,U1_M11,ZSPAN_M11,X0_M11,X2_M11,X1_M11
2022-05-13 11:00:00,,0825.5,5.01,0.00,27.8,27.0,00.0,36.8,29.5,07.7,0000.0,0008.10,0002.55,0001.28
2022-05-13 11:01:00,,0825.5,4.99,0.00,27.7,26.9,00.0,36.8,29.5,07.8,0000.0,0008.01,0002.54,0001.27
2022-05-13 11:02:00,,0825.4,5.01,0.00,27.7,26.9,00.0,36.8,29.5,07.9,0000.0,0007.91,0002.52,0001.28
2022-05-13 11:03:00,,0825.5,5.00,0.00,27.7,26.9,00.0,36.8,29.4,07.8,0000.0,0008.44,0002.47,0001.28
2022-05-13 11:04:00,,0825.5,5.00,0.00,27.7,26.8,00.0,36.7,29.4,07.8,0000.0,0008.38,0002.38,0001.28
2022-05-13 11:05:00,,0825.5,5.00,0.00,27.6,26.8,00.0,36.7,29.4,07.8,0000.0,0008.26,0002.31,0001.28
2022-05-13 11:06:00,,0825.5,5.01,0.00,27.6,26.8,00.0,36.7,29.4,07.8,0000.0,0008.23,0002.35,0001.28
2022-05-13 11:07:00,,0825.5,5.00,0.00,27.6,26.8,00.0,36.7,29.4,07.7,0000.0,0008.03,0002.30,0001.28
2022-05-13 11:08:00,,0825.5,5.01,0.00,27.6,26.8,00.0,36.7,29.4,07.7,0000.0,0006.63,0002.28,0001.28
2022-05-13 11:09:00,,0825.5,5.00,0.00,27.6,26.8,00.0,36.7,29.4,07.5,0000.0,0006.44,0002.31,0001.28
2022-05-13 11:10:00,,0825.5,5.00,0.00,27.6,26.7,00.0,36.7,29.3,07.6,0000.0,0006.63,0002.38,0001.29
2022-05-13 11:11:00,,0825.6,5.01,0.00,27.6,26.7,00.0,36.7,29.3,07.6,0000.0,0006.51,0002.32,0001.30
2022-05-13 11:12:00,,0825.6,4.98,0.00,27.5,26.7,00.0,36.6,29.3,07.6,0000.0,0006.37,0002.27,0001.29
2022-05-13 11:13:00,,0825.6,5.01,0.00,27.5,26.7,00.0,36.6,29.3,07.7,0000.0,0006.55,0002.33,0001.31
2022-05-13 11:14:00,,0825.5,5.01,0.00,27.5,26.7,00.0,36.6,29.3,07.7,0000.0,0005.68,0002.38,0001.30
2022-05-13 11:15:00,,0825.5,4.99,0.00,27.5,26.7,00.0,36.6,29.3,07.7,0000.0,0005.49,0002.51,0001.30
2022-05-13 11:16:00,,0825.5,5.00,0.00,27.5,26.7,00.0,36.6,29.3,07.7,0000.0,0005.65,0002.56,0001.30
2022-05-13 11:17:00,,0825.6,5.01,0.00,27.5,26.7,00.0,36.6,29.3,07.8,0000.0,0005.54,0002.57,0001.30
2022-05-13 11:18:00,,0825.6,5.00,0.00,27.5,26.7,00.0,36.6,29.3,07.8,0000.0,0005.74,0002.63,0001.30
2022-05-13 11:19:00,,0825.6,4.99,0.00,27.5,26.7,00.0,36.6,29.3,07.8,0000.0,0006.04,0002.62,0001.31
2022-05-13 11:20:00,,0825.6,5.00,0.00,27.5,26.7,00.0,36.5,29.3,07.8,0000.0,0006.01,0002.58,0001.32
2022-05-13 11:21:00,,0825.6,5.00,0.00,27.5,26.7,00.0,36.5,29.2,07.8,0000.0,0006.44,0002.56,0001.32
2022-05-13 11:22:00,,0825.6,5.01,0.00,27.4,26.6,00.0,36.5,29.2,07.8,0000.0,0006.65,0002.57,0001.33
2022-05-13 11:23:00,,0825.5,4.99,0.00,27.4,26.6,00.0,36.5,29.1,07.7,0000.0,0006.72,0002.64,0001.34
2022-05-13 11:24:00,,0825.5,5.01,0.00,27.4,26.5,00.0,36.5,29.1,07.6,0000.0,0006.61,0002.63,0001.35
2022-05-13 11:25:00,,0825.5,4.99,0.00,27.3,26.5,00.0,36.5,29.0,07.5,0000.0,0006.77,0002.67,0001.37
2022-05-13 11:26:00,,0825.5,5.00,0.00,27.3,26.4,00.0,36.4,29.0,07.3,0000.0,0006.91,0002.61,0001.39
2022-05-13 11:27:00,,0825.5,5.01,0.00,27.3,26.4,00.0,36.4,29.0,07.6,0000.0,0006.86,0002.62,0001.41
2022-05-13 11:28:00,,0825.5,4.99,0.00,27.3,26.4,00.0,36.4,29.0,07.7,0000.0,0007.74,0002.71,0001.43
2022-05-13 11:29:00,,0825.5,5.01,0.00,27.2,26.4,00.0,36.4,29.0,07.7,0000.0,0007.72,0002.70,0001.43
2022-05-13 11:30:00,,0825.5,4.99,0.00,27.2,26.4,00.0,36.4,29.0,07.7,0000.0,0007.52,0002.67,0001.43
2022-05-13 11:31:00,,0825.5,5.01,0.00,27.2,26.4,00.0,36.3,29.0,07.7,0000.0,0007.48,0002.71,0001.42
2022-05-13 11:32:00,,0825.5,4.99,0.00,27.2,26.4,00.0,36.3,29.0,07.7,0000.0,0007.25,0002.74,0001.43
2022-05-13 11:33:00,,0825.6,5.01,0.00,27.2,26.4,00.0,36.3,28.9,07.7,0000.0,0007.33,0002.80,0001.44
2022-05-13 11:34:00,,0825.5,5.00,0.00,27.2,26.4,00.0,36.3,28.9,07.8,0000.0,0007.40,0002.81,0001.43
2022-05-13 11:35:00,,0825.5,5.01,0.00,27.2,26.4,00.0,36.3,28.9,07.8,0000.0,0007.40,0002.80,0001.43
2022-05-13 11:36:00,,0825.6,4.99,0.00,27.1,26.4,00.0,36.3,28.9,07.8,0000.0,0007.35,0002.82,0001.42
2022-05-13 11:37:00,,0825.6,4.99,0.00,27.1,26.4,00.0,36.2,28.9,07.8,0000.0,0006.87,0002.76,0001.40
2022-05-13 11:38:00,,0825.6,5.01,0.00,27.1,26.4,00.0,36.2,28.8,07.9,0000.0,0007.00,0002.79,0001.39
2022-05-13 11:39:00,,0825.6,4.99,0.00,27.1,26.4,00.0,36.2,28.8,07.9,0000.0,0006.17,0002.75,0001.37
2022-05-13 11:40:00,,0825.5,5.00,0.00,27.1,26.4,00.0,36.2,28.9,07.9,0000.0,0006.08,0002.72,0001.36
2022-05-13 11:41:00,,0825.5,5.01,0.00,27.1,26.4,00.0,36.2,28.9,07.9,0000.0,0006.29,0002.84,0001.37
2022-05-13 11:42:00,,0825.5,5.00,0.00,27.1,26.4,00.0,36.2,29.0,08.0,0000.0,0006.07,0002.79,0001.36
2022-05-13 11:43:00,,0825.6,4.99,0.00,27.2,26.5,00.0,36.2,29.0,08.0,0000.0,0005.89,0002.74,0001.35
2022-05-13 11:44:00,,0825.6,5.01,0.00,27.1,26.4,00.0,36.2,28.9,07.9,0000.0,0005.68,0002.71,0001.34
2022-05-13 11:45:00,,0825.6,4.99,0.00,27.1,26.4,00.0,36.2,28.9,07.9,0000.0,0005.42,0002.65,0001.34
2022-05-13 11:46:00,,0825.6,5.00,0.00,27.1,26.4,00.0,36.2,28.9,07.9,0000.0,0006.58,0002.67,0001.33
2022-05-13 11:47:00,,0825.6,5.01,0.00,27.1,26.4,00.0,36.1,28.8,08.0,0000.0,0006.86,0002.64,0001.33
2022-05-13 11:48:00,,0825.6,4.99,0.00,27.1,26.3,00.0,36.1,28.8,07.9,0000.0,0006.93,0002.63,0001.33
2022-05-13 11:49:00,,0825.6,5.00,0.00,27.0,26.3,00.0,36.1,28.8,07.8,0000.0,0007.08,0002.66,0001.34
2022-05-13 11:50:00,,0825.7,5.01,0.00,27.0,26.3,00.0,36.1,28.7,07.6,0000.0,0006.97,0002.62,0001.35
2022-05-13 11:51:00,,0825.6,5.01,0.00,27.0,26.2,00.0,36.1,28.7,07.6,0000.0,0006.85,0002.62,0001.37
2022-05-13 11:52:00,,0825.6,4.99,0.00,27.0,26.2,00.0,36.1,28.7,07.7,0000.0,0006.63,0002.58,0001.37
2022-05-13 11:53:00,,0825.5,5.00,0.00,26.9,26.1,00.0,36.0,28.6,07.7,0000.0,0006.36,0002.47,0001.37
2022-05-13 11:54:00,,0825.6,5.01,0.00,26.9,26.1,00.0,36.0,28.6,07.7,0000.0,0006.72,0002.58,0001.39
2022-05-13 11:55:00,,0825.7,4.99,0.00,26.9,26.0,00.0,36.0,28.6,07.7,0000.0,0007.23,0002.60,0001.41
2022-05-13 11:56:00,,0825.7,5.01,0.00,26.8,26.0,00.0,36.0,28.5,07.8,0000.0,0007.39,0002.55,0001.41
2022-05-13 11:57:00,,0825.7,4.99,0.00,26.8,26.0,00.0,36.0,28.5,07.9,0000.0,0007.81,0002.53,0001.40
2022-05-13 11:58:00,,0825.9,4.99,0.00,26.8,26.0,00.0,36.0,28.5,08.0,0000.0,0007.52,0002.56,0001.40
2022-05-13 11:59:00,,0826.0,5.01,0.00,26.8,26.0,00.0,35.9,28.5,08.0,0000.0,0007.45,0002.53,0001.40
